FW1715 Weather Reports


Display with metric or nautical units.
time (UTC)temp
F
wind
direction
speed
MPH
gust
MPH
rain 1hr
in
rain 24hr
in
rain mn
in
humidity
%
barometer
mb
20260507141108 57 205 0.0 0.0 0.00 0.00 0.00 88 1015.8
20260507140107 57 205 0.0 0.0 0.00 0.00 0.00 89 1015.8
20260507135608 56 205 0.0 0.0 0.00 0.00 0.00 90 1015.7
20260507135107 56 205 0.0 0.0 0.00 0.00 0.00 91 1015.7
20260507134606 55 205 0.0 0.0 0.00 0.00 0.00 91 1015.7
20260507133606 55 205 0.0 2.0 0.00 0.00 0.00 91 1015.5
20260507133108 55 290 0.0 2.0 0.00 0.00 0.00 90 1015.4
20260507132603 55 283 0.0 2.0 0.00 0.00 0.00 91 1015.3
20260507132104 54 283 0.0 3.0 0.00 0.00 0.00 91 1015.3
20260507131604 54 283 0.0 3.0 0.00 0.00 0.00 91 1015.3
20260507131104 54 283 0.0 0.0 0.00 0.00 0.00 91 1015.4
20260507125601 54 336 0.0 0.0 0.00 0.00 0.00 91 1015.5
20260507125100 54 336 0.0 0.0 0.00 0.00 0.00 92 1015.4
20260507124059 54 336 0.0 0.0 0.00 0.00 0.00 91 1015.3
20260507123557 54 336 0.0 0.0 0.00 0.00 0.00 91 1015.3
20260507123057 55 336 0.0 0.0 0.00 0.00 0.00 91 1015.2
20260507122556 55 336 0.0 0.0 0.00 0.00 0.00 91 1015.2
20260507122059 55 336 0.0 0.0 0.00 0.00 0.00 91 1015.2
20260507121557 55 336 0.0 0.0 0.00 0.00 0.00 91 1015.1
20260507121056 55 336 0.0 0.0 0.00 0.00 0.00 91 1015.1
20260507120557 55 327 0.0 0.0 0.00 0.00 0.00 91 1015.2
20260507120056 55 300 0.0 0.0 0.00 0.00 0.00 91 1015.3
20260507115549 55 300 0.0 0.0 0.00 0.00 0.00 90 1015.2
20260507115048 55 300 0.0 0.0 0.00 0.00 0.00 90 1015.3
20260507114544 55 300 0.0 0.0 0.00 0.00 0.00 91 1015.3
20260507114044 55 300 0.0 0.0 0.00 0.00 0.00 90 1015.3
20260507113544 55 300 0.0 0.0 0.00 0.00 0.00 90 1015.3
20260507113044 55 300 0.0 0.0 0.00 0.00 0.00 90 1015.3
20260507112544 55 300 0.0 0.0 0.00 0.00 0.00 90 1015.4
20260507112043 55 300 0.0 0.0 0.00 0.00 0.00 90 1015.5
20260507111044 55 300 0.0 0.0 0.00 0.00 0.00 90 1015.5
20260507110540 55 300 0.0 0.0 0.00 0.00 0.00 90 1015.5
20260507110038 55 300 0.0 0.0 0.00 0.00 0.00 90 1015.6
20260507105540 55 300 0.0 0.0 0.00 0.00 0.00 91 1015.6
20260507105040 55 300 0.0 0.0 0.00 0.00 0.00 91 1015.5
20260507104539 55 300 0.0 0.0 0.00 0.00 0.00 91 1015.6
20260507104040 55 300 0.0 0.0 0.00 0.00 0.00 91 1015.6
20260507103538 55 300 0.0 0.0 0.00 0.00 0.00 91 1015.5
20260507103039 55 300 0.0 0.0 0.00 0.00 0.00 91 1015.6
20260507102540 55 300 0.0 0.0 0.00 0.00 0.00 91 1015.6
20260507101539 55 300 0.0 0.0 0.00 0.00 0.00 91 1015.5
20260507101040 56 300 0.0 0.0 0.00 0.00 0.00 91 1015.6
20260507100540 56 300 0.0 0.0 0.00 0.00 0.00 92 1015.6
20260507100038 56 300 0.0 0.0 0.00 0.00 0.00 92 1015.6
20260507095038 56 300 0.0 0.0 0.00 0.00 0.00 92 1015.6
20260507094540 56 300 0.0 0.0 0.00 0.00 0.00 92 1015.7
20260507093540 56 300 0.0 0.0 0.00 0.00 0.00 91 1015.8
20260507093038 56 300 0.0 0.0 0.00 0.00 0.00 91 1015.9
20260507092539 56 300 0.0 0.0 0.00 0.00 0.00 91 1015.9
20260507091038 56 300 0.0 0.0 0.00 0.00 0.00 90 1016.2
20260507090540 56 300 0.0 0.0 0.00 0.00 0.00 90 1016.2
20260507090040 56 300 0.0 0.0 0.00 0.00 0.00 89 1016.3
20260507085539 57 300 0.0 0.0 0.00 0.00 0.00 89 1016.4
20260507085031 57 300 0.0 0.0 0.00 0.00 0.00 89 1016.4
20260507084525 57 300 0.0 0.0 0.00 0.00 0.00 89 1016.5
20260507084024 57 300 0.0 0.0 0.00 0.00 0.00 89 1016.5
20260507083520 57 300 0.0 0.0 0.00 0.00 0.00 89 1016.5
20260507083016 57 300 0.0 0.0 0.00 0.00 0.00 89 1016.7
20260507082517 57 300 0.0 0.0 0.00 0.00 0.00 88 1016.6
20260507082018 57 300 0.0 0.0 0.00 0.00 0.00 88 1016.7
20260507081514 57 300 0.0 0.0 0.00 0.00 0.00 89 1016.8
20260507081013 57 300 0.0 0.0 0.00 0.00 0.00 88 1016.8
20260507080513 57 300 0.0 0.0 0.00 0.00 0.00 88 1016.7
20260507075509 58 300 0.0 0.0 0.00 0.00 0.00 88 1016.6
20260507075009 58 300 0.0 0.0 0.00 0.00 0.00 87 1016.6
20260507074509 58 300 0.0 0.0 0.00 0.00 0.00 87 1016.7
20260507074010 58 300 0.0 0.0 0.00 0.00 0.00 87 1016.7
20260507073507 58 300 0.0 0.0 0.00 0.00 0.00 87 1016.5
20260507073006 58 300 0.0 0.0 0.00 0.00 0.00 86 1016.4
20260507072507 58 300 0.0 0.0 0.00 0.00 0.00 86 1016.6
20260507072001 58 300 0.0 0.0 0.00 0.00 0.00 86 1016.6
20260507071459 58 300 0.0 0.0 0.00 0.00 0.00 85 1016.6
20260507070958 58 300 0.0 0.0 0.00 0.00 0.00 85 1016.6
20260507070458 58 300 0.0 0.0 0.00 0.00 0.00 85 1016.8
20260507065455 59 300 0.0 0.0 0.00 0.00 0.00 85 1016.8
20260507064952 59 300 0.0 0.0 0.00 0.00 0.00 85 1016.7
20260507064454 59 300 0.0 0.0 0.00 0.00 0.00 84 1016.8
20260507063950 59 300 0.0 0.0 0.00 0.00 0.00 84 1016.8
20260507063451 59 300 0.0 0.0 0.00 0.00 0.00 84 1016.8
20260507062951 59 300 0.0 0.0 0.00 0.00 0.00 84 1016.8
20260507062452 59 300 0.0 0.0 0.00 0.00 0.00 84 1016.9
20260507061949 59 300 0.0 0.0 0.00 0.00 0.00 84 1016.8
20260507061447 59 300 0.0 0.0 0.00 0.00 0.00 83 1016.9
20260507060946 59 300 0.0 0.0 0.00 0.00 0.00 83 1016.9
20260507055944 59 300 0.0 0.0 0.00 0.00 0.00 83 1016.9
20260507055445 59 300 0.0 0.0 0.00 0.00 0.00 82 1017.0
20260507054939 59 300 0.0 0.0 0.00 0.00 0.00 82 1016.9
20260507054437 59 300 0.0 0.0 0.00 0.00 0.00 82 1016.9
20260507053934 59 300 0.0 0.0 0.00 0.00 0.00 82 1016.9
20260507053433 60 300 0.0 0.0 0.00 0.00 0.00 81 1016.9
20260507052933 60 300 0.0 0.0 0.00 0.00 0.00 81 1017.0
20260507052434 60 300 0.0 0.0 0.00 0.00 0.00 81 1017.0
20260507051932 60 300 0.0 0.0 0.00 0.00 0.00 81 1016.9
20260507050428 60 300 0.0 0.0 0.00 0.00 0.00 80 1016.9
20260507045928 60 300 0.0 0.0 0.00 0.00 0.00 80 1016.9
20260507045427 60 300 0.0 0.0 0.00 0.00 0.00 80 1017.0
20260507044925 60 300 0.0 0.0 0.00 0.00 0.00 80 1016.9
20260507044426 61 300 0.0 0.0 0.00 0.00 0.00 79 1016.9
20260507043926 61 300 0.0 0.0 0.00 0.00 0.00 79 1017.0
20260507043425 61 299 0.0 0.0 0.00 0.00 0.00 79 1016.9
20260507042925 61 299 0.0 0.0 0.00 0.00 0.00 79 1016.9
20260507042423 61 299 0.0 0.0 0.00 0.00 0.00 79 1017.0
20260507041921 61 299 0.0 0.0 0.00 0.00 0.00 78 1017.0
20260507041419 61 299 0.0 2.0 0.00 0.00 0.00 78 1016.9
20260507040917 61 299 0.0 3.0 0.00 0.00 0.00 77 1016.9
20260507035418 62 288 0.0 3.0 0.00 0.00 0.00 77 1016.8
20260507034918 62 288 0.0 2.0 0.00 0.00 0.00 76 1016.8
20260507034419 62 288 0.0 2.0 0.00 0.00 0.00 77 1016.7
20260507033918 62 288 0.0 3.0 0.00 0.00 0.00 77 1016.6
20260507033414 62 288 0.0 3.0 0.00 0.00 0.00 76 1016.6
20260507032914 62 286 1.0 4.0 0.00 0.00 0.00 76 1016.6
20260507031915 63 290 2.0 7.0 0.00 0.00 0.00 76 1016.6
20260507031415 63 302 2.0 6.0 0.00 0.00 0.00 76 1016.5
20260507030914 63 287 1.0 6.0 0.00 0.00 0.00 76 1016.4
20260507030413 63 288 1.0 4.0 0.00 0.00 0.00 75 1016.3
20260507025914 63 284 2.0 4.0 0.00 0.00 0.00 75 1016.2
20260507025415 64 274 2.0 4.0 0.00 0.00 0.00 74 1016.1
20260507024911 64 284 2.0 5.0 0.00 0.00 0.00 74 1016.1
20260507024411 64 289 1.0 6.0 0.00 0.00 0.00 73 1016.1
20260507023911 64 268 2.0 6.0 0.00 0.00 0.00 72 1016.0
20260507023410 65 266 2.0 4.0 0.00 0.00 0.00 71 1016.0
20260507022909 65 252 2.0 8.0 0.00 0.00 0.00 71 1016.0
20260507022410 65 267 3.0 8.0 0.00 0.00 0.00 70 1015.9
20260507021911 66 279 3.0 8.0 0.00 0.00 0.00 69 1015.8
20260507021410 67 221 2.0 8.0 0.00 0.00 0.00 68 1015.8
20260507020911 67 234 2.0 8.0 0.00 0.00 0.00 67 1015.8
20260507020405 68 246 3.0 8.0 0.00 0.00 0.00 66 1015.6
20260507015406 70 220 4.0 9.0 0.00 0.00 0.00 63 1015.6
20260507014406 70 309 4.0 9.0 0.00 0.00 0.00 63 1015.5
20260507013907 71 268 4.0 9.0 0.00 0.00 0.00 62 1015.5
20260507012906 72 261 4.0 11.0 0.00 0.00 0.00 61 1015.4
20260507011907 73 234 5.0 11.0 0.00 0.00 0.00 60 1015.4
20260507011407 73 207 5.0 10.0 0.00 0.00 0.00 61 1015.4
20260507010906 73 235 5.0 10.0 0.00 0.00 0.00 60 1015.4
20260507005905 74 258 4.0 11.0 0.00 0.00 0.00 60 1015.5
20260507005406 74 274 5.0 11.0 0.00 0.00 0.00 60 1015.4
20260507004906 73 250 6.0 12.0 0.00 0.00 0.00 60 1015.4
20260507003904 74 234 6.0 11.0 0.00 0.00 0.00 60 1015.4
20260507002904 74 217 5.0 10.0 0.00 0.00 0.00 60 1015.5
20260507001901 74 244 6.0 12.0 0.00 0.00 0.00 59 1015.3
20260507000902 74 239 5.0 11.0 0.00 0.00 0.00 57 1015.2
20260506235903 74 240 4.0 13.0 0.00 0.00 0.00 56 1015.2
20260506235402 73 267 5.0 10.0 0.00 0.00 0.00 56 1015.3
20260506234903 73 252 5.0 12.0 0.00 0.00 0.00 56 1015.4
20260506234401 73 265 4.0 12.0 0.00 0.00 0.00 57 1015.4
20260506233858 73 280 4.0 10.0 0.00 0.00 0.00 54 1015.3
20260506233357 73 296 5.0 12.0 0.00 0.00 0.00 56 1015.3
20260506232857 73 292 6.0 13.0 0.00 0.00 0.00 54 1015.4
20260506232358 73 254 6.0 13.0 0.00 0.00 0.00 54 1015.4
20260506231855 73 238 6.0 10.0 0.00 0.00 0.00 53 1015.4
20260506231353 73 306 5.0 11.0 0.00 0.00 0.00 52 1015.4
20260506230353 74 257 6.0 13.0 0.00 0.00 0.00 53 1015.4
20260506225850 73 228 6.0 13.0 0.00 0.00 0.00 53 1015.5
20260506224848 73 230 4.0 10.0 0.00 0.00 0.00 56 1015.5
20260506224348 72 301 6.0 11.0 0.00 0.00 0.00 53 1015.7
20260506223846 73 270 6.0 11.0 0.00 0.00 0.00 53 1015.7
20260506223343 74 279 4.0 10.0 0.00 0.00 0.00 52 1015.8
20260506222841 74 251 4.0 10.0 0.00 0.00 0.00 54 1015.8
20260506222342 74 237 5.0 12.0 0.00 0.00 0.00 56 1015.9
20260506221841 73 250 5.0 12.0 0.00 0.00 0.00 56 1015.9
20260506221342 72 234 5.0 10.0 0.00 0.00 0.00 58 1015.9
20260506220835 72 240 6.0 11.0 0.00 0.00 0.00 57 1016.0
20260506215822 73 255 5.0 14.0 0.00 0.00 0.00 59 1016.1
20260506215316 72 281 5.0 11.0 0.00 0.00 0.00 59 1016.2
20260506214810 71 242 5.0 13.0 0.00 0.00 0.00 60 1016.1
20260506214303 72 285 5.0 13.0 0.00 0.00 0.00 59 1016.2
20260506213800 72 265 4.0 11.0 0.00 0.00 0.00 61 1016.3
20260506213252 71 274 4.0 9.0 0.00 0.00 0.00 62 1016.4
20260506212746 71 287 4.0 9.0 0.00 0.00 0.00 63 1016.4
20260506211734 72 281 5.0 12.0 0.00 0.00 0.00 62 1016.5
20260506210722 71 248 5.0 13.0 0.00 0.00 0.00 64 1016.5
20260506210216 71 261 5.0 13.0 0.00 0.00 0.00 64 1016.5
20260506204658 71 284 5.0 11.0 0.00 0.00 0.00 64 1016.6
20260506204152 72 317 5.0 12.0 0.00 0.00 0.00 63 1016.7
20260506203646 72 221 5.0 12.0 0.00 0.00 0.00 64 1016.7
20260506203140 71 294 4.0 11.0 0.00 0.00 0.00 65 1016.7
20260506202634 71 240 5.0 13.0 0.00 0.00 0.00 65 1016.8
20260506202128 70 275 4.0 13.0 0.00 0.00 0.00 64 1016.7
20260506201622 71 315 3.0 8.0 0.00 0.00 0.00 64 1016.8
20260506201116 71 286 4.0 9.0 0.00 0.00 0.00 63 1016.8
20260506200610 71 250 4.0 11.0 0.00 0.00 0.00 64 1016.8
20260506200104 71 229 3.0 11.0 0.00 0.00 0.00 65 1016.9
20260506195558 71 250 4.0 9.0 0.00 0.00 0.00 64 1017.0
20260506195052 71 278 4.0 11.0 0.00 0.00 0.00 63 1017.1
20260506194546 72 277 3.0 11.0 0.00 0.00 0.00 62 1017.1
20260506193534 71 225 5.0 10.0 0.00 0.00 0.00 64 1017.4
20260506193028 70 234 6.0 14.0 0.00 0.00 0.00 65 1017.3
20260506192522 71 227 6.0 14.0 0.00 0.00 0.00 65 1017.3
20260506191510 70 237 7.0 14.0 0.00 0.00 0.00 66 1017.3
20260506191004 70 246 6.0 14.0 0.00 0.00 0.00 65 1017.3
20260506190458 70 275 4.0 11.0 0.00 0.00 0.00 66 1017.4
20260506185952 70 244 4.0 11.0 0.00 0.00 0.00 64 1017.3
20260506185446 71 258 3.0 8.0 0.00 0.00 0.00 65 1017.5
20260506184940 70 226 2.0 7.0 0.00 0.00 0.00 63 1017.5
20260506183422 71 227 3.0 10.0 0.00 0.00 0.00 64 1017.5
20260506182916 70 230 4.0 10.0 0.00 0.00 0.00 65 1017.6
20260506182410 70 246 4.0 10.0 0.00 0.00 0.00 64 1017.6
20260506181904 70 279 3.0 10.0 0.00 0.00 0.00 65 1017.7
20260506181358 69 219 2.0 10.0 0.00 0.00 0.00 66 1017.7
20260506180852 68 232 1.0 7.0 0.00 0.00 0.00 64 1017.8
20260506180346 67 294 2.0 8.0 0.00 0.00 0.00 64 1017.7
20260506175842 67 288 3.0 8.0 0.00 0.00 0.00 64 1017.8
20260506175334 66 311 4.0 9.0 0.00 0.00 0.00 67 1017.8
20260506174828 66 258 3.0 9.0 0.00 0.00 0.00 67 1017.7
20260506173816 66 214 1.0 3.0 0.00 0.00 0.00 67 1017.7
20260506173309 65 234 2.0 4.0 0.00 0.00 0.00 66 1017.8
20260506172258 64 219 3.0 7.0 0.00 0.00 0.00 68 1017.8
20260506171752 65 242 2.0 7.0 0.00 0.00 0.00 69 1017.8
20260506171246 64 213 2.0 6.0 0.00 0.00 0.00 70 1017.8
20260506170740 64 212 3.0 7.0 0.00 0.00 0.00 71 1017.9
20260506170234 64 200 2.0 7.0 0.00 0.00 0.00 70 1018.0
20260506165728 63 205 2.0 7.0 0.00 0.00 0.00 73 1018.0
20260506164716 63 242 3.0 7.0 0.00 0.00 0.00 73 1018.0
20260506164210 62 225 3.0 7.0 0.00 0.00 0.00 75 1018.1
20260506163704 62 236 3.0 7.0 0.00 0.00 0.00 75 1018.2
20260506163158 62 248 2.0 7.0 0.00 0.00 0.00 75 1018.2
20260506162653 62 269 1.0 4.0 0.00 0.00 0.00 77 1018.1
20260506161640 61 214 1.0 6.0 0.00 0.00 0.00 75 1018.2
20260506161134 61 220 2.0 6.0 0.00 0.00 0.00 74 1018.3
20260506155110 62 187 2.0 6.0 0.00 0.00 0.00 76 1018.1
20260506153045 61 195 1.0 4.0 0.00 0.00 0.00 77 1018.0
20260506152540 62 161 1.0 4.0 0.00 0.00 0.00 77 1018.0
20260506152034 62 194 2.0 5.0 0.00 0.00 0.00 77 1018.0
20260506151528 62 202 1.0 5.0 0.00 0.00 0.00 76 1018.0
20260506151022 63 158 0.0 0.0 0.00 0.00 0.00 74 1018.0
20260506150515 64 105 0.0 0.0 0.00 0.00 0.00 73 1018.0
20260506150010 64 105 0.0 0.0 0.00 0.00 0.00 70 1018.0
20260506145504 64 92 0.0 0.0 0.00 0.00 0.00 71 1018.1
20260506144453 62 86 0.0 0.0 0.00 0.00 0.00 74 1018.0
20260506143946 61 84 0.0 0.0 0.00 0.00 0.00 73 1018.0
20260506143440 60 80 0.0 0.0 0.00 0.00 0.00 74 1017.9
20260506142934 59 81 0.0 0.0 0.00 0.00 0.00 76 1017.9
20260506142428 57 81 0.0 0.0 0.00 0.00 0.00 80 1017.9